Location: Buffign�court
(47.8126°N, 6.0176°E)
Time: 18:31:27
(UTC+00:00)

Cosmos 1459 Rocket - Pass Details

Date: 16 June 2021
Orbit: 937 x 999 km, 83.0° (Epoch: 31 July)

Event Time Altitude Azimuth Distance (km) Brightness Sun altitude
Rises 21:00:30 0° 351° (N) 3,615 8.2 -10.6°
Reaches altitude 10° 21:02:59 10° 352° (N) 2,663 7.4 -10.9°
Maximum altitude 21:09:05 84° 82° (E) 949 3.9 -11.5°
Enters shadow 21:14:33 13° 170° (S) 2,433 5.5 -12.0°
